TimeCST,TemperatureF,Dew PointF,Humidity,Sea Level PressureIn,VisibilityMPH,Wind Direction,Wind SpeedMPH,Gust SpeedMPH,PrecipitationIn,Events,Conditions,WindDirDegrees,DateUTC
12:53 AM,33.1,26.1,75,30.42,10.0,Calm,Calm,-,N/A,,Clear,0,2013-01-04 06:53:00
1:53 AM,30.9,26.1,82,30.42,10.0,Calm,Calm,-,N/A,,Clear,0,2013-01-04 07:53:00
2:53 AM,28.9,25.0,85,30.43,10.0,Calm,Calm,-,N/A,,Clear,0,2013-01-04 08:53:00
3:53 AM,30.0,25.0,82,30.43,10.0,Calm,Calm,-,N/A,,Clear,0,2013-01-04 09:53:00
4:53 AM,28.0,25.0,88,30.44,10.0,Calm,Calm,-,N/A,,Clear,0,2013-01-04 10:53:00
5:53 AM,28.9,25.0,85,30.44,10.0,Calm,Calm,-,N/A,,Clear,0,2013-01-04 11:53:00
6:53 AM,27.0,23.0,85,30.46,10.0,NNE,3.5,-,N/A,,Clear,20,2013-01-04 12:53:00
7:53 AM,30.0,26.1,85,30.46,10.0,Calm,Calm,-,N/A,,Clear,0,2013-01-04 13:53:00
8:53 AM,36.0,28.9,76,30.49,10.0,Calm,Calm,-,N/A,,Clear,0,2013-01-04 14:53:00
9:53 AM,39.9,27.0,60,30.51,10.0,Calm,Calm,-,N/A,,Clear,0,2013-01-04 15:53:00
10:53 AM,43.0,26.1,51,30.50,10.0,NE,4.6,-,N/A,,Clear,50,2013-01-04 16:53:00
11:53 AM,45.0,24.1,44,30.46,10.0,NNE,3.5,-,N/A,,Clear,20,2013-01-04 17:53:00
12:53 PM,46.0,25.0,44,30.43,10.0,Variable,3.5,-,N/A,,Clear,0,2013-01-04 18:53:00
1:53 PM,48.0,26.1,42,30.41,10.0,Variable,4.6,-,N/A,,Clear,0,2013-01-04 19:53:00
2:53 PM,48.9,25.0,39,30.40,10.0,NNE,6.9,-,N/A,,Clear,30,2013-01-04 20:53:00
3:53 PM,48.0,25.0,41,30.40,10.0,NNE,4.6,-,N/A,,Clear,20,2013-01-04 21:53:00
4:53 PM,46.0,24.1,42,30.41,10.0,Calm,Calm,-,N/A,,Clear,0,2013-01-04 22:53:00
5:53 PM,41.0,28.9,62,30.43,10.0,Calm,Calm,-,N/A,,Clear,0,2013-01-04 23:53:00
6:53 PM,37.0,28.9,73,30.43,10.0,Calm,Calm,-,N/A,,Clear,0,2013-01-05 00:53:00
7:53 PM,35.1,28.9,78,30.43,10.0,Calm,Calm,-,N/A,,Clear,0,2013-01-05 01:53:00
8:53 PM,34.0,28.0,79,30.41,10.0,Calm,Calm,-,N/A,,Clear,0,2013-01-05 02:53:00
9:53 PM,32.0,27.0,82,30.41,10.0,Calm,Calm,-,N/A,,Clear,0,2013-01-05 03:53:00
10:53 PM,32.0,28.0,85,30.42,10.0,Calm,Calm,-,N/A,,Clear,0,2013-01-05 04:53:00
11:53 PM,30.0,27.0,88,30.40,10.0,Calm,Calm,-,N/A,,Clear,0,2013-01-05 05:53:00